Location: Ballingbuur
(53.0000°N, 5.7667°E)
Time: 05:20:42
(UTC+00:00)

Cosmos 2228 Rocket - Pass Details

Date: 29 November 2020
Orbit: 618 x 652 km, 82.5° (Epoch: 23 January)

Event Time Altitude Azimuth Distance (km) Brightness Sun altitude
Exits shadow 05:43:34 - 340° (NNW) 2,128 5.5 -14.4°
Reaches altitude 10° 05:43:52 10° 339° (NNW) 2,013 5.3 -14.4°
Maximum altitude 05:48:07 47° 266° (W) 836 3.3 -13.8°
Drops below altitude 10° 05:52:20 10° 193° (SSW) 1,984 5.7 -13.2°
Sets 05:54:36 0° 188° (S) 2,883 6.6 -12.8°
